User: anonymous   Login
Location: Unspecified
(0.0000°N, 0.0000°E)
Time: 07:48:02
(UTC+00:00)
Language:

Ayame 2 - Orbit

View from above orbital plane
View from above orbital plane
View from above satellite
View from above satellite

Ground track
Ground track

The orbit data is extracted from the following two-line orbital elements,

1 11715U 80018A   18112.79108797 -.00000084 +00000-0 +00000-0 0  9996
2 11715 008.1870 290.0403 4429205 178.5088 136.0125 01.75494235182764
Epoch (UTC): 22 April 2018 18:59:10
Eccentricity: 0.4429205
inclination: 8.1870°
perigee height: 9795 km
apogee height: 35514 km
right ascension of ascending node: 290.0403°
argument of perigee: 178.5088°
revolutions per day: 1.75494235
mean anomaly at epoch: 136.0125°
orbit number at epoch: 18276

The dashed part of the orbit path shows where the satellite is in the earth's shadow,  

DLR